Weather History for Francistown, Botswana

Change the Weather History Date:

Sunday, April 21, 2013

  Actual Average Record
Temperature  
Mean Temperature 70 °F -  
Max Temperature 80 °F 78 °F 95 °F (1999)
Min Temperature 57 °F 49 °F 46 °F (2008)
Cooling Degree Days 5    
Growing Degree Days 20 (Base 50)    
Moisture  
Dew Point 58 °F    
Average Humidity 73    
Maximum Humidity 94    
Minimum Humidity 44    
Precipitation  
Precipitation 0.00 in - - ()
Sea Level Pressure  
Sea Level Pressure 30.08 in    
Wind  
Wind Speed 4 mph ()    
Max Wind Speed 7 mph    
Max Gust Speed -    
Visibility 6.2 miles    
Events      
Averages and records for this station are not official NWS values.
T = Trace of Precipitation, MM = Missing Value Source: Averaged Metar Reports

Daily Weather History Graph

Daily Weather History Graph

Search for Another Location

Airport:

Trip Planner

Search our weather history database for the weather conditions in past years. The results will help you decide how hot, cold, wet, or windy it might be!

Date:

Astronomy

Apr. 21, 2013 Rise Set
Actual Time 6:23 AM CAT 5:53 PM CAT
Civil Twilight 6:01 AM CAT 6:16 PM CAT
Nautical Twilight 5:35 AM CAT 6:42 PM CAT
Astronomical Twilight 5:09 AM CAT 7:08 PM CAT
Moon 2:43 PM CAT (4/21) 2:00 AM CAT (4/21)
Length of Visible Light 12h 14m
Length of Day
11h 29m
Waxing Gibbous, 77% of the Moon is Illuminated
Apr 21
Waxing Gibbous
Apr 25
Full
May 2
Last Quarter
May 10
New
May 18
First Quarter

Hourly Weather History & Observations

Time (CAT) Temp. Heat Index Dew Point Humidity Pressure Visibility Wind Dir Wind Speed Gust Speed Precip Events Conditions
12:00 AM 60.8 °F - 59.0 °F 94% 30.12 in 6.2 mi SSE 5.8 mph - N/A   Partly Cloudy
1:00 AM 60.8 °F - 57.2 °F 88% 30.09 in - SSE 3.5 mph - N/A   Clear
2:00 AM 61 °F - 58 °F 87%  in 6 mi SSE 3.5 mph - -   Partly Cloudy
2:00 AM 60.8 °F - 59.0 °F 94% 30.09 in 6.2 mi SSE 3.5 mph - N/A   Scattered Clouds
3:00 AM 60.8 °F - 57.2 °F 88% 30.09 in 6.2 mi SSE 3.5 mph - N/A   Scattered Clouds
4:00 AM 60.8 °F - 57.2 °F 88% 30.06 in 6.2 mi SE 3.5 mph - N/A   Scattered Clouds
5:00 AM 62.6 °F - 59.0 °F 88% 30.09 in 6.2 mi Variable 2.3 mph - N/A   Mostly Cloudy
6:00 AM 62.6 °F - 59.0 °F 88% 30.09 in 6.2 mi SE 3.5 mph - N/A   Overcast
7:00 AM 60.8 °F - 57.2 °F 88% 30.12 in 6.2 mi SE 5.8 mph - N/A   Overcast
8:00 AM 63 °F - 58 °F 80%  in 6 mi SE 5.8 mph - -   Partly Cloudy
8:00 AM 62.6 °F - 59.0 °F 88% 30.12 in 6.2 mi SE 5.8 mph - N/A   Overcast
9:00 AM 64.4 °F - 60.8 °F 88% 30.12 in 6.2 mi East 5.8 mph - N/A   Overcast
10:00 AM 66.2 °F - 60.8 °F 83% 30.15 in 6.2 mi SE 6.9 mph - N/A   Overcast
11:00 AM 68.0 °F - 60.8 °F 78% 30.15 in 6.2 mi Calm Calm - N/A   Mostly Cloudy
12:00 PM 71.6 °F - 62.6 °F 73% 30.09 in 6.2 mi ESE 6.9 mph - N/A   Scattered Clouds
1:00 PM 75.2 °F - 60.8 °F 61% 30.06 in 6.2 mi NNE 6.9 mph - N/A   Scattered Clouds
2:00 PM 77 °F - 59 °F 44%  in 6 mi NNE 3.5 mph - -   Partly Cloudy
2:00 PM 77.0 °F - 66.2 °F 69% 30.04 in 6.2 mi NNE 3.5 mph - N/A   Scattered Clouds
3:00 PM 80.6 °F 81.5 °F 60.8 °F 51% 30.01 in 6.2 mi ESE 4.6 mph - N/A   Partly Cloudy
4:00 PM 80.6 °F 80.8 °F 57.2 °F 45% 30.01 in 6.2 mi ESE 4.6 mph - N/A   Partly Cloudy
5:00 PM 78.8 °F - 57.2 °F 47% 30.01 in - ESE 3.5 mph - N/A   Clear
6:00 PM 75.2 °F - 57.2 °F 53% 30.01 in - SE 4.6 mph - N/A   Clear
7:00 PM 69.8 °F - 55.4 °F 60% 30.04 in - SSE 3.5 mph - N/A   Clear
8:00 PM 67 °F - 56 °F 58%  in 6 mi South 2.3 mph - -  
8:00 PM 66.2 °F - 55.4 °F 68% 30.04 in - Variable 2.3 mph - N/A   Clear
9:00 PM 62.6 °F - 51.8 °F 68% 30.06 in - Variable 1.2 mph - N/A   Clear
10:00 PM 60.8 °F - 50.0 °F 68% 30.06 in - South 6.9 mph - N/A   Clear
11:00 PM 57.2 °F - 48.2 °F 72% 30.09 in - Variable 1.2 mph - N/A   Clear